�������l�o���
Date,Time,MP-1(��Sv/h),MP-2(��Sv/h),MP-3(��Sv/h),MP-4(��Sv/h),MP-5(��Sv/h),MP-6(��Sv/h),MP-7(��Sv/h),MP-8(��Sv/h),����,����(m/s),���J
2022/10/05,00:00,0.591,0.851,0.544,1.054,0.752,0.343,0.598,0.565,���k��,1.1,��
2022/10/05,00:10,0.591,0.852,0.544,1.054,0.752,0.343,0.598,0.564,�k��,2.3,��
2022/10/05,00:20,0.591,0.850,0.543,1.052,0.752,0.343,0.598,0.564,���k��,4.6,��
2022/10/05,00:30,0.591,0.850,0.543,1.053,0.752,0.344,0.600,0.565,���k��,8.0,��
2022/10/05,00:40,0.591,0.849,0.544,1.056,0.752,0.343,0.599,0.565,���k��,7.6,��
2022/10/05,00:50,0.590,0.851,0.544,1.054,0.752,0.344,0.599,0.564,���k��,6.0,��
2022/10/05,01:00,0.591,0.849,0.544,1.055,0.751,0.345,0.599,0.565,���k��,8.6,��
2022/10/05,01:10,0.591,0.851,0.544,1.054,0.754,0.344,0.597,0.567,��,8.6,��
2022/10/05,01:20,0.591,0.849,0.542,1.056,0.754,0.344,0.599,0.564,��,9.8,�L
2022/10/05,01:30,0.589,0.851,0.543,1.055,0.754,0.343,0.597,0.566,���k��,10.6,��
2022/10/05,01:40,0.591,0.849,0.542,1.053,0.753,0.344,0.600,0.564,���k��,8.9,��
2022/10/05,01:50,0.591,0.849,0.540,1.055,0.752,0.344,0.599,0.565,���k��,7.4,�L
2022/10/05,02:00,0.591,0.849,0.542,1.055,0.752,0.343,0.601,0.564,���k��,8.1,�L
2022/10/05,02:10,0.592,0.850,0.542,1.055,0.752,0.344,0.598,0.565,���k��,7.7,�L
2022/10/05,02:20,0.593,0.850,0.545,1.055,0.751,0.344,0.598,0.566,�k��,8.1,�L
2022/10/05,02:30,0.592,0.850,0.545,1.056,0.752,0.345,0.599,0.565,�k��,8.1,�L
2022/10/05,02:40,0.592,0.849,0.546,1.057,0.755,0.346,0.598,0.564,�k��,5.7,�L
2022/10/05,02:50,0.592,0.850,0.546,1.058,0.754,0.345,0.598,0.564,�k��,5.8,�L
2022/10/05,03:00,0.592,0.850,0.543,1.061,0.754,0.345,0.597,0.565,�k��,8.0,�L
2022/10/05,03:10,0.591,0.850,0.543,1.057,0.753,0.345,0.600,0.564,�k��,7.0,�L
2022/10/05,03:20,0.592,0.847,0.546,1.057,0.755,0.345,0.599,0.563,�k��,6.2,�L
2022/10/05,03:30,0.591,0.851,0.545,1.055,0.753,0.344,0.597,0.564,�k�k��,5.1,��
2022/10/05,03:40,0.587,0.848,0.542,1.056,0.752,0.344,0.598,0.566,�k,4.3,�L
2022/10/05,03:50,0.593,0.845,0.544,1.055,0.752,0.344,0.597,0.565,�k,4.5,��
2022/10/05,04:00,0.592,0.846,0.542,1.057,0.751,0.342,0.599,0.564,�k�k��,4.1,��
2022/10/05,04:10,0.591,0.849,0.543,1.057,0.752,0.343,0.599,0.566,�k�k��,4.1,�L
2022/10/05,04:20,0.590,0.846,0.542,1.055,0.753,0.342,0.598,0.565,�k�k��,2.6,��
2022/10/05,04:30,0.591,0.844,0.542,1.056,0.752,0.341,0.599,0.565,�k�k��,3.6,��
2022/10/05,04:40,0.590,0.846,0.542,1.054,0.753,0.341,0.597,0.564,�k�k��,3.7,��
2022/10/05,04:50,0.588,0.847,0.543,1.055,0.751,0.340,0.598,0.564,�k�k��,4.5,��
2022/10/05,05:00,0.590,0.846,0.541,1.053,0.752,0.341,0.597,0.565,�k,4.2,��
2022/10/05,05:10,0.589,0.846,0.542,1.055,0.750,0.341,0.599,0.565,�k,6.0,��
2022/10/05,05:20,0.589,0.847,0.543,1.055,0.750,0.341,0.599,0.564,�k�k��,6.0,��
2022/10/05,05:30,0.588,0.847,0.542,1.054,0.752,0.340,0.598,0.563,�k�k��,5.4,��
2022/10/05,05:40,0.588,0.845,0.541,1.054,0.749,0.343,0.598,0.565,�k,3.9,��
2022/10/05,05:50,0.590,0.845,0.542,1.056,0.752,0.341,0.598,0.564,�k,5.4,�L
2022/10/05,06:00,0.587,0.846,0.540,1.057,0.752,0.341,0.598,0.565,�k�k��,5.5,�L
2022/10/05,06:10,0.589,0.846,0.541,1.056,0.750,0.341,0.598,0.564,�k,5.9,��
2022/10/05,06:20,0.588,0.847,0.541,1.057,0.749,0.342,0.597,0.566,�k,7.6,��
2022/10/05,06:30,0.587,0.845,0.542,1.057,0.750,0.340,0.599,0.565,�k,6.6,��
2022/10/05,06:40,0.587,0.845,0.541,1.057,0.752,0.340,0.599,0.564,�k,8.1,��
2022/10/05,06:50,0.587,0.845,0.542,1.056,0.751,0.341,0.597,0.564,�k,8.8,��
2022/10/05,07:00,0.588,0.847,0.541,1.054,0.748,0.341,0.597,0.561,�k,8.1,�L
2022/10/05,07:10,0.585,0.844,0.540,1.055,0.751,0.339,0.596,0.564,�k,9.2,��
2022/10/05,07:20,0.586,0.843,0.538,1.056,0.751,0.340,0.596,0.562,�k,9.8,��
2022/10/05,07:30,0.586,0.845,0.539,1.054,0.751,0.338,0.595,0.563,�k,9.5,�L
2022/10/05,07:40,0.585,0.843,0.537,1.055,0.750,0.339,0.594,0.564,�k,9.8,��
2022/10/05,07:50,0.587,0.844,0.537,1.055,0.750,0.340,0.595,0.564,�k,9.7,�L
2022/10/05,08:00,0.588,0.844,0.539,1.056,0.750,0.340,0.595,0.563,�k,8.6,�L
2022/10/05,08:10,0.587,0.845,0.540,1.058,0.750,0.341,0.595,0.563,�k�k��,8.1,�L
2022/10/05,08:20,0.587,0.845,0.541,1.055,0.751,0.342,0.596,0.562,�k,9.0,�L
2022/10/05,08:30,0.590,0.844,0.539,1.057,0.750,0.344,0.595,0.561,�k,8.1,�L
2022/10/05,08:40,0.588,0.842,0.540,1.059,0.751,0.344,0.596,0.561,�k,7.7,�L
2022/10/05,08:50,0.589,0.844,0.541,1.056,0.750,0.344,0.595,0.562,�k,7.2,�L
2022/10/05,09:00,0.588,0.843,0.544,1.058,0.749,0.345,0.595,0.562,�k,6.8,�L
2022/10/05,09:10,0.589,0.843,0.544,1.057,0.747,0.347,0.593,0.561,�k,5.9,�L
2022/10/05,09:20,0.590,0.838,0.543,1.059,0.747,0.348,0.594,0.562,�k,7.4,�L
2022/10/05,09:30,0.589,0.842,0.542,1.056,0.746,0.347,0.594,0.561,�k,7.8,�L
2022/10/05,09:40,0.587,0.841,0.544,1.054,0.746,0.347,0.593,0.560,�k�k��,8.1,�L
2022/10/05,09:50,0.587,0.839,0.542,1.053,0.744,0.345,0.593,0.559,�k�k��,9.1,�L
2022/10/05,10:00,0.587,0.838,0.540,1.055,0.746,0.344,0.593,0.559,�k�k��,9.3,�L
2022/10/05,10:10,0.587,0.842,0.540,1.054,0.744,0.344,0.593,0.560,�k�k��,9.5,�L
2022/10/05,10:20,0.586,0.839,0.540,1.053,0.743,0.342,0.592,0.560,�k�k��,8.9,�L
2022/10/05,10:30,0.588,0.840,0.540,1.051,0.744,0.343,0.592,0.559,�k�k��,9.3,�L
2022/10/05,10:40,0.587,0.836,0.539,1.052,0.743,0.343,0.592,0.560,�k,10.6,�L
2022/10/05,10:50,0.586,0.838,0.539,1.052,0.742,0.344,0.593,0.558,�k,8.1,�L
2022/10/05,11:00,0.588,0.836,0.540,1.054,0.741,0.345,0.592,0.558,�k�k��,8.4,�L
2022/10/05,11:10,0.587,0.839,0.538,1.053,0.739,0.345,0.590,0.557,�k,9.1,�L
2022/10/05,11:20,0.587,0.835,0.540,1.050,0.738,0.345,0.592,0.559,�k,8.8,�L
2022/10/05,11:30,0.586,0.834,0.540,1.048,0.738,0.347,0.592,0.557,�k,9.0,�L
2022/10/05,11:40,0.588,0.834,0.541,1.049,0.740,0.348,0.591,0.557,�k,8.5,�L
2022/10/05,11:50,0.587,0.834,0.539,1.048,0.737,0.345,0.592,0.558,�k,7.5,�L
2022/10/05,12:00,0.585,0.835,0.539,1.048,0.738,0.346,0.592,0.558,�k,7.4,�L
2022/10/05,12:10,0.588,0.834,0.539,1.048,0.737,0.347,0.590,0.559,�k,7.4,�L
2022/10/05,12:20,0.586,0.836,0.541,1.050,0.738,0.348,0.590,0.558,�k,5.9,�L
2022/10/05,12:30,0.586,0.836,0.542,1.047,0.737,0.350,0.590,0.558,�k,6.1,�L
2022/10/05,12:40,0.588,0.836,0.540,1.047,0.737,0.347,0.590,0.556,�k�k��,6.9,�L
2022/10/05,12:50,0.587,0.835,0.537,1.047,0.734,0.347,0.590,0.558,�k,5.6,�L
2022/10/05,13:00,0.583,0.834,0.537,1.044,0.736,0.344,0.589,0.556,�k,5.0,�L
2022/10/05,13:10,0.584,0.834,0.534,1.044,0.732,0.343,0.589,0.558,�k,4.7,��
2022/10/05,13:20,0.584,0.830,0.534,1.044,0.732,0.343,0.590,0.558,�k�k��,4.3,��
2022/10/05,13:30,0.580,0.833,0.534,1.044,0.733,0.342,0.589,0.558,�k�k��,4.8,��
2022/10/05,13:40,0.581,0.829,0.533,1.042,0.731,0.340,0.589,0.557,�k�k��,4.6,��
2022/10/05,13:50,0.578,0.832,0.532,1.040,0.730,0.338,0.587,0.555,�k�k��,5.1,��
2022/10/05,14:00,0.579,0.829,0.532,1.040,0.731,0.338,0.588,0.557,�k�k��,4.6,��
2022/10/05,14:10,0.577,0.828,0.533,1.041,0.729,0.338,0.588,0.556,�k�k��,5.1,��
2022/10/05,14:20,0.577,0.829,0.532,1.040,0.729,0.336,0.586,0.556,�k�k��,4.0,��
2022/10/05,14:30,0.578,0.828,0.530,1.040,0.731,0.335,0.586,0.556,�k�k��,4.3,��
2022/10/05,14:40,0.577,0.827,0.531,1.040,0.728,0.335,0.588,0.554,�k,4.3,�L
2022/10/05,14:50,0.577,0.827,0.531,1.038,0.729,0.336,0.586,0.556,�k,4.8,�L
2022/10/05,15:00,0.577,0.825,0.532,1.038,0.730,0.336,0.587,0.553,�k,5.4,�L
2022/10/05,15:10,0.578,0.828,0.533,1.041,0.729,0.335,0.586,0.555,�k�k��,5.3,�L
2022/10/05,15:20,0.578,0.830,0.531,1.040,0.731,0.336,0.587,0.555,�k,4.6,�L
2022/10/05,15:30,0.578,0.828,0.531,1.039,0.731,0.336,0.586,0.557,�k,4.8,�L
2022/10/05,15:40,0.578,0.828,0.532,1.042,0.730,0.337,0.586,0.555,�k,6.1,�L
2022/10/05,15:50,0.577,0.827,0.531,1.040,0.730,0.338,0.587,0.555,�k,5.5,�L
2022/10/05,16:00,0.579,0.824,0.532,1.041,0.730,0.339,0.587,0.554,�k,5.8,�L
2022/10/05,16:10,0.576,0.825,0.530,1.038,0.728,0.338,0.586,0.555,�k,6.0,�L
2022/10/05,16:20,0.579,0.828,0.533,1.041,0.725,0.337,0.587,0.554,�k,6.0,�L
2022/10/05,16:30,0.577,0.825,0.529,1.039,0.726,0.337,0.587,0.554,�k,5.2,�L
2022/10/05,16:40,0.577,0.825,0.529,1.037,0.725,0.338,0.586,0.553,�k�k��,4.7,�L
2022/10/05,16:50,0.577,0.827,0.529,1.040,0.728,0.338,0.588,0.556,�k�k��,4.4,�L
2022/10/05,17:00,0.576,0.826,0.529,1.040,0.728,0.337,0.585,0.556,�k�k��,4.9,�L
2022/10/05,17:10,0.576,0.827,0.528,1.038,0.727,0.338,0.586,0.555,�k�k��,4.3,��
2022/10/05,17:20,0.574,0.826,0.529,1.040,0.726,0.337,0.588,0.555,�k�k��,4.4,�L
2022/10/05,17:30,0.576,0.826,0.527,1.037,0.726,0.336,0.588,0.555,�k�k��,4.2,�L
2022/10/05,17:40,0.576,0.826,0.529,1.037,0.728,0.335,0.586,0.555,�k��,4.1,�L
2022/10/05,17:50,0.574,0.828,0.527,1.039,0.729,0.335,0.586,0.555,�k�k��,3.9,�L
2022/10/05,18:00,0.574,0.825,0.529,1.039,0.727,0.337,0.587,0.555,�k�k��,5.0,�L
2022/10/05,18:10,0.576,0.826,0.529,1.040,0.728,0.336,0.588,0.555,�k�k��,5.3,�L
2022/10/05,18:20,0.574,0.828,0.528,1.039,0.727,0.336,0.587,0.556,�k�k��,5.6,��
2022/10/05,18:30,0.575,0.825,0.527,1.038,0.727,0.336,0.588,0.554,�k�k��,5.5,��
2022/10/05,18:40,0.574,0.825,0.528,1.038,0.729,0.335,0.587,0.555,�k�k��,5.7,��
2022/10/05,18:50,0.575,0.826,0.528,1.038,0.726,0.335,0.586,0.555,�k�k��,5.0,��
2022/10/05,19:00,0.574,0.825,0.527,1.035,0.727,0.334,0.587,0.556,�k�k��,5.4,��
2022/10/05,19:10,0.575,0.825,0.527,1.036,0.727,0.334,0.589,0.553,�k�k��,6.4,��
2022/10/05,19:20,0.574,0.829,0.527,1.037,0.727,0.335,0.588,0.555,�k�k��,5.4,��
2022/10/05,19:30,0.574,0.824,0.527,1.038,0.727,0.335,0.587,0.555,�k�k��,5.4,��
2022/10/05,19:40,0.573,0.827,0.526,1.040,0.726,0.335,0.587,0.556,�k�k��,5.6,��
2022/10/05,19:50,0.575,0.823,0.528,1.038,0.729,0.335,0.588,0.555,�k��,4.6,��
2022/10/05,20:00,0.574,0.826,0.526,1.039,0.727,0.335,0.588,0.555,�k�k��,4.6,��
2022/10/05,20:10,0.575,0.827,0.529,1.037,0.727,0.337,0.590,0.555,�k�k��,4.3,��
2022/10/05,20:20,0.572,0.824,0.528,1.039,0.726,0.335,0.588,0.554,�k�k��,5.6,��
2022/10/05,20:30,0.572,0.827,0.528,1.037,0.729,0.335,0.589,0.556,�k�k��,5.9,��
2022/10/05,20:40,0.575,0.825,0.528,1.039,0.726,0.334,0.591,0.554,�k�k��,6.6,��
2022/10/05,20:50,0.573,0.825,0.527,1.036,0.728,0.335,0.588,0.556,�k�k��,6.2,��
2022/10/05,21:00,0.575,0.826,0.528,1.039,0.726,0.334,0.589,0.555,�k�k��,6.8,��
2022/10/05,21:10,0.573,0.825,0.528,1.038,0.727,0.337,0.589,0.556,�k�k��,6.3,��
2022/10/05,21:20,0.574,0.827,0.529,1.037,0.729,0.334,0.590,0.555,�k�k��,6.3,��
2022/10/05,21:30,0.574,0.826,0.529,1.038,0.729,0.334,0.589,0.555,�k�k��,5.4,��
2022/10/05,21:40,0.574,0.825,0.529,1.036,0.728,0.336,0.589,0.557,�k�k��,4.9,��
2022/10/05,21:50,0.574,0.827,0.528,1.035,0.728,0.336,0.587,0.556,�k�k��,4.9,��
2022/10/05,22:00,0.573,0.826,0.528,1.038,0.729,0.336,0.589,0.556,�k�k��,5.4,��
2022/10/05,22:10,0.574,0.826,0.527,1.040,0.728,0.335,0.589,0.556,�k�k��,5.0,��
2022/10/05,22:20,0.573,0.826,0.527,1.039,0.728,0.335,0.589,0.557,�k��,5.8,��
2022/10/05,22:30,0.574,0.824,0.527,1.038,0.730,0.335,0.589,0.557,�k�k��,5.5,��
2022/10/05,22:40,0.575,0.828,0.528,1.038,0.727,0.335,0.588,0.558,�k�k��,5.7,��
2022/10/05,22:50,0.573,0.827,0.528,1.037,0.728,0.334,0.589,0.556,�k�k��,5.8,��
2022/10/05,23:00,0.573,0.826,0.528,1.037,0.728,0.336,0.589,0.555,�k�k��,6.3,��
2022/10/05,23:10,0.573,0.825,0.528,1.038,0.729,0.335,0.591,0.556,�k�k��,6.5,��
2022/10/05,23:20,0.576,0.828,0.528,1.039,0.730,0.336,0.590,0.554,�k�k��,6.0,��
2022/10/05,23:30,0.574,0.826,0.529,1.039,0.731,0.336,0.589,0.556,�k�k��,5.5,��
2022/10/05,23:40,0.575,0.827,0.528,1.041,0.728,0.336,0.589,0.554,�k�k��,5.3,��
2022/10/05,23:50,0.575,0.827,0.530,1.038,0.730,0.334,0.590,0.556,�k�k��,4.9,��
